When you browse on this site, cookies collect data to enhance your experience and personalize the content and advertising you see.
Visit our Privacy Policy to learn more. By continuing to use the site, you agree to this use of cookies and data.
  • In Hungary
  • List of Countries
  • For 7 days
  • Water Temperature
  • Satellite Maps
  • Weather Map
  • News
  • Weather Widgets
  • user-avatar
    Login

    Hourly Weather Karlow

    Today, 23 April, Tuesday

    Time Temperature Precipitation Wind Pressure Humidity
    00:00 +4°C° 0 mm 3 mps 698 mmHg 83%
    01:00 +4°C° 0 mm 2 mps 698 mmHg 87%
    02:00 +4°C° 0 mm 2 mps 697 mmHg 88%
    03:00 +3°C° 0 mm 2 mps 697 mmHg 89%
    04:00 +3°C° 0 mm 2 mps 697 mmHg 90%
    05:00 +3°C° 0 mm 3 mps 697 mmHg 85%
    06:00 +4°C° 0 mm 3 mps 697 mmHg 81%
    07:00 +5°C° 0 mm 3 mps 697 mmHg 76%
    08:00 +6°C° 0.2 mm 4 mps 697 mmHg 77%
    09:00 +7°C° 0.2 mm 4 mps 696 mmHg 78%
    10:00 +7°C° 0.2 mm 5 mps 696 mmHg 79%
    11:00 +8°C° 0.1 mm 5 mps 696 mmHg 78%
    12:00 +8°C° 0.1 mm 6 mps 696 mmHg 77%
    13:00 +9°C° 0.1 mm 6 mps 696 mmHg 76%
    14:00 +8°C° 0.3 mm 7 mps 696 mmHg 77%
    15:00 +8°C° 0.3 mm 7 mps 696 mmHg 77%
    16:00 +8°C° 0.3 mm 7 mps 695 mmHg 78%
    17:00 +7°C° 0.2 mm 6 mps 695 mmHg 81%
    18:00 +5°C° 0.2 mm 6 mps 695 mmHg 84%
    19:00 +6°C° 0.2 mm 5 mps 695 mmHg 87%
    20:00 +6°C° 0.4 mm 5 mps 695 mmHg 88%
    21:00 +6°C° 0.4 mm 4 mps 695 mmHg 89%
    22:00 +5°C° 0.4 mm 4 mps 695 mmHg 91%
    23:00 +5°C° 0 mm 4 mps 695 mmHg 91%

    Tomorrow, 24 April, Wednesday

    Time Temperature Precipitation Wind Pressure Humidity
    00:00 +5°C° 0 mm 4 mps 694 mmHg 92%
    01:00 +5°C° 0 mm 3 mps 694 mmHg 92%
    02:00 +5°C° 0 mm 3 mps 694 mmHg 93%
    03:00 +5°C° 0 mm 3 mps 694 mmHg 93%
    04:00 +5°C° 0 mm 3 mps 694 mmHg 93%
    05:00 +6°C° 0 mm 4 mps 694 mmHg 91%
    06:00 +7°C° 0 mm 4 mps 695 mmHg 89%
    07:00 +8°C° 0 mm 5 mps 695 mmHg 87%
    08:00 +9°C° 0 mm 5 mps 695 mmHg 84%
    09:00 +9°C° 0 mm 6 mps 696 mmHg 81%
    10:00 +10°C° 0 mm 6 mps 696 mmHg 78%
    11:00 +11°C° 0 mm 6 mps 696 mmHg 76%
    12:00 +13°C° 0 mm 6 mps 697 mmHg 74%
    13:00 +14°C° 0 mm 7 mps 697 mmHg 71%
    14:00 +14°C° 0 mm 6 mps 697 mmHg 72%
    15:00 +14°C° 0 mm 6 mps 697 mmHg 74%
    16:00 +14°C° 0 mm 6 mps 697 mmHg 75%
    17:00 +13°C° 0 mm 5 mps 697 mmHg 79%
    18:00 +12°C° 0 mm 4 mps 697 mmHg 83%
    19:00 +12°C° 0 mm 4 mps 697 mmHg 88%
    20:00 +11°C° 0 mm 4 mps 697 mmHg 89%
    21:00 +11°C° 0 mm 4 mps 696 mmHg 91%
    22:00 +10°C° 0 mm 4 mps 696 mmHg 92%
    23:00 +10°C° 0 mm 3 mps 696 mmHg 93%

    Day after tomorrow, 25 April, Thursday

    Time Temperature Precipitation Wind Pressure Humidity
    00:00 +9°C° 0 mm 3 mps 696 mmHg 94%
    01:00 +9°C° 0 mm 3 mps 697 mmHg 94%
    02:00 +9°C° 0 mm 3 mps 697 mmHg 95%
    03:00 +8°C° 0 mm 3 mps 697 mmHg 95%
    04:00 +8°C° 0 mm 2 mps 697 mmHg 95%
    05:00 +9°C° 0 mm 2 mps 698 mmHg 91%
    06:00 +10°C° 0 mm 2 mps 698 mmHg 87%
    07:00 +12°C° 0 mm 1 mps 699 mmHg 83%
    08:00 +14°C° 0 mm 2 mps 699 mmHg 76%
    09:00 +16°C° 0 mm 2 mps 700 mmHg 68%
    10:00 +18°C° 0 mm 2 mps 700 mmHg 61%
    11:00 +19°C° 0 mm 2 mps 700 mmHg 59%
    12:00 +20°C° 0 mm 3 mps 700 mmHg 56%
    13:00 +21°C° 0 mm 3 mps 700 mmHg 54%
    14:00 +20°C° 0 mm 3 mps 700 mmHg 55%
    15:00 +20°C° 0 mm 3 mps 700 mmHg 57%
    16:00 +20°C° 0 mm 3 mps 699 mmHg 59%
    17:00 +19°C° 0 mm 3 mps 699 mmHg 66%
    18:00 +17°C° 0 mm 2 mps 698 mmHg 73%
    19:00 +15°C° 0 mm 1 mps 698 mmHg 80%
    20:00 +14°C° 0 mm 1 mps 698 mmHg 81%
    21:00 +14°C° 0 mm 1 mps 698 mmHg 83%
    22:00 +13°C° 0 mm 2 mps 698 mmHg 85%
    23:00 +13°C° 0 mm 2 mps 697 mmHg 86%

    26 April, Friday

    Time Temperature Precipitation Wind Pressure Humidity
    00:00 +12°C° 0 mm 2 mps 697 mmHg 88%
    01:00 +11°C° 0 mm 3 mps 697 mmHg 89%
    02:00 +11°C° 0 mm 3 mps 696 mmHg 89%
    03:00 +10°C° 0 mm 3 mps 696 mmHg 89%
    04:00 +10°C° 0 mm 3 mps 696 mmHg 90%
    05:00 +11°C° 0 mm 3 mps 696 mmHg 85%
    06:00 +12°C° 0 mm 3 mps 696 mmHg 80%
    07:00 +12°C° 0 mm 4 mps 696 mmHg 76%
    08:00 +14°C° 0 mm 4 mps 696 mmHg 71%
    09:00 +17°C° 0 mm 4 mps 697 mmHg 67%
    10:00 +17°C° 0 mm 5 mps 697 mmHg 62%
    11:00 +19°C° 0 mm 5 mps 697 mmHg 59%
    12:00 +20°C° 0 mm 5 mps 697 mmHg 57%
    13:00 +21°C° 0 mm 5 mps 697 mmHg 54%
    14:00 +21°C° 0.4 mm 4 mps 696 mmHg 56%
    15:00 +21°C° 0.4 mm 4 mps 696 mmHg 58%
    16:00 +21°C° 0.4 mm 3 mps 696 mmHg 60%
    17:00 +18°C° 1.6 mm 3 mps 696 mmHg 68%
    18:00 +16°C° 1.6 mm 3 mps 696 mmHg 75%
    19:00 +14°C° 1.6 mm 2 mps 696 mmHg 83%
    20:00 +12°C° 1.3 mm 3 mps 697 mmHg 86%
    21:00 +11°C° 1.3 mm 3 mps 697 mmHg 90%
    22:00 +10°C° 1.3 mm 3 mps 698 mmHg 94%
    23:00 +8°C° 0.3 mm 4 mps 698 mmHg 92%

    27 April, Saturday

    Time Temperature Precipitation Wind Pressure Humidity
    00:00 +7°C° 0.3 mm 5 mps 699 mmHg 91%
    01:00 +6°C° 0.3 mm 5 mps 699 mmHg 90%
    02:00 +6°C° 0.4 mm 5 mps 699 mmHg 90%
    03:00 +5°C° 0.4 mm 4 mps 700 mmHg 91%
    04:00 +5°C° 0.4 mm 4 mps 700 mmHg 91%
    05:00 +5°C° 0.3 mm 4 mps 700 mmHg 90%
    06:00 +5°C° 0.3 mm 4 mps 700 mmHg 90%
    07:00 +6°C° 0.3 mm 4 mps 701 mmHg 89%
    08:00 +7°C° 0.1 mm 4 mps 701 mmHg 84%
    09:00 +8°C° 0.1 mm 4 mps 701 mmHg 79%
    10:00 +10°C° 0.1 mm 4 mps 701 mmHg 74%
    11:00 +11°C° 0.3 mm 4 mps 701 mmHg 71%
    12:00 +10°C° 0.3 mm 5 mps 701 mmHg 68%
    13:00 +12°C° 0.3 mm 5 mps 701 mmHg 64%
    14:00 +12°C° 0.3 mm 5 mps 701 mmHg 66%
    15:00 +12°C° 0.3 mm 4 mps 701 mmHg 67%
    16:00 +12°C° 0.3 mm 4 mps 700 mmHg 68%
    17:00 +10°C° 0.3 mm 4 mps 700 mmHg 73%
    18:00 +9°C° 0.3 mm 3 mps 700 mmHg 78%
    19:00 +8°C° 0.3 mm 3 mps 700 mmHg 83%
    20:00 +7°C° 0 mm 3 mps 700 mmHg 85%
    21:00 +6°C° 0 mm 2 mps 700 mmHg 86%
    22:00 +5°C° 0 mm 2 mps 700 mmHg 88%
    23:00 +5°C° 0 mm 2 mps 700 mmHg 88%

    28 April, Sunday

    Time Temperature Precipitation Wind Pressure Humidity
    00:00 +4°C° 0 mm 2 mps 700 mmHg 89%
    01:00 +4°C° 0 mm 1 mps 700 mmHg 89%
    02:00 +4°C° 0 mm 1 mps 700 mmHg 90%
    03:00 +4°C° 0 mm 1 mps 700 mmHg 90%
    04:00 +4°C° 0 mm 1 mps 700 mmHg 90%
    05:00 +4°C° 0 mm 2 mps 701 mmHg 89%
    06:00 +5°C° 0 mm 2 mps 701 mmHg 87%
    07:00 +6°C° 0 mm 2 mps 702 mmHg 85%
    08:00 +7°C° 0.1 mm 3 mps 702 mmHg 82%
    09:00 +7°C° 0.1 mm 3 mps 702 mmHg 79%
    10:00 +8°C° 0.1 mm 3 mps 703 mmHg 77%
    11:00 +9°C° 0.2 mm 3 mps 703 mmHg 74%
    12:00 +9°C° 0.2 mm 3 mps 703 mmHg 71%
    13:00 +10°C° 0.2 mm 2 mps 702 mmHg 68%
    14:00 +10°C° 0.2 mm 2 mps 702 mmHg 68%
    15:00 +10°C° 0.2 mm 2 mps 702 mmHg 68%
    16:00 +10°C° 0.2 mm 2 mps 702 mmHg 68%
    17:00 +9°C° 0.1 mm 2 mps 702 mmHg 73%
    18:00 +9°C° 0.1 mm 1 mps 702 mmHg 78%
    19:00 +8°C° 0.1 mm 1 mps 702 mmHg 83%
    20:00 +8°C° 0 mm 1 mps 702 mmHg 84%
    21:00 +7°C° 0 mm 1 mps 702 mmHg 86%
    22:00 +6°C° 0 mm 1 mps 703 mmHg 87%
    23:00 +6°C° 0 mm 1 mps 703 mmHg 88%
    Show more